This demonstration page uses our WeatherBlox Daily Observations layout. Learn more.

Left ArrowRight Arrow

Hourly Observations for June 25, 2020

Temp ( °F °C ) Dew Point ( °F °C ) Humidity (%) Winds ( mph kmh ) Pressure ( in mb ) Visibility ( mi km ) Precip ( " mm )
12:53 am 00:53 Clear 75 23.9 55 12.8 50 50 ESE 8 13 29.86 1011 10 16 0.00 0.00
1:53 am 01:53 Clear 74 23.3 54 12.2 50 50 ESE 8 13 29.86 1011 10 16 0.00 0.00
2:53 am 02:53 Clear 73 22.8 53 11.7 50 50 ESE 10 17 29.83 1010 10 16 0.00 0.00
3:53 am 03:53 Clear 72 22.2 53 11.7 52 52 ESE 9 15 29.84 1011 10 16 0.00 0.00
4:53 am 04:53 Clear 71 21.7 53 11.7 53 53 SE 12 19 29.83 1010 10 16 0.00 0.00
5:53 am 05:53 Clear 70 21.1 55 12.8 59 59 ESE 9 15 29.83 1010 10 16 0.00 0.00
6:53 am 06:53 Sunny 70 21.1 55 12.8 59 59 ESE 10 17 29.85 1011 10 16 0.00 0.00
7:53 am 07:53 Sunny 71 21.7 56 13.3 59 59 ESE 9 15 29.86 1011 10 16 0.00 0.00
8:53 am 08:53 Sunny 75 23.9 59 15 58 58 SE 10 17 29.88 1012 10 16 0.00 0.00
9:53 am 09:53 Sunny 80 26.7 61 16.1 52 52 SSE 14 22 29.88 1012 10 16 0.00 0.00
10:53 am 10:53 Sunny 83 28.3 62 16.7 49 49 SE 8 13 29.88 1012 10 16 0.00 0.00
11:53 am 11:53 Sunny 86 30 61 16.1 43 43 S 7 11 29.87 1012 10 16 0.00 0.00
12:53 pm 12:53 Sunny 89 31.7 58 14.4 35 35 S 7 11 29.86 1011 10 16 0.00 0.00
1:53 pm 13:53 Sunny 91 32.8 57 13.9 32 32 SSE 13 20 29.84 1010 10 16 0.00 0.00
2:53 pm 14:53 Sunny 92 33.3 54 12.2 28 28 undefined N/A 29.81 1010 10 16 0.00 0.00
3:53 pm 15:53 Sunny 93 33.9 55 12.8 28 28 SSE 10 17 29.79 1009 10 16 0.00 0.00
4:53 pm 16:53 Sunny 93 33.9 52 11.1 25 25 SE 10 17 29.78 1009 10 16 0.00 0.00
5:53 pm 17:53 Sunny 95 35 51 10.6 23 23 SE 7 11 29.76 1008 10 16 0.00 0.00
6:53 pm 18:53 Sunny 94 34.4 52 11.1 24 24 S 7 11 29.75 1008 10 16 0.00 0.00
7:53 pm 19:53 Sunny 93 33.9 52 11.1 25 25 SSE 12 19 29.75 1008 10 16 0.00 0.00
8:53 pm 20:53 Sunny 88 31.1 55 12.8 33 33 SE 8 13 29.75 1008 10 16 0.00 0.00
9:53 pm 21:53 Clear 84 28.9 57 13.9 40 40 SE 8 13 29.77 1008 10 16 0.00 0.00
10:53 pm 22:53 Clear 83 28.3 56 13.3 40 40 SSE 8 13 29.80 1009 10 16 0.00 0.00
11:53 pm 23:53 Clear 81 27.2 57 13.9 44 44 SE 8 13 29.81 1010 10 16 0.00 0.00

Powered by AerisWeather